QPF
0.04 0.04 0.03 0.03 0.04 0.06 0.06 0.06 0.05 0.05 0.04 0.03 0.03 0.03 0.03 0.04 0.05 0.05 0.04 0.04 0.04 0.05 0.06 0.07 0.09 0.09 0.08 0.07 0.07 0.07 0.05 0.03 0.03 0.02 0.01 0.02 0.01 0.02 0.03 0.04 0.04 0.04 0.04
0.05 0.04 0.03 0.03 0.04 0.06 0.06 0.05 0.05 0.06 0.07 0.06 0.05 0.05 0.05 0.05 0.04 0.04 0.03 0.04 0.04 0.05 0.06 0.07 0.06 0.06 0.07 0.07 0.05 0.04 0.04 0.03 0.03 0.03 0.02 0.02 0.02 0.02 0.03 0.04 0.04 0.03 0.03
0.06 0.04 0.03 0.03 0.04 0.05 0.06 0.05 0.04 0.04 0.05 0.06 0.06 0.06 0.05 0.05 0.04 0.03 0.03 0.03 0.04 0.04 0.05 0.05 0.04 0.04 0.06 0.06 0.05 0.04 0.03 0.03 0.03 0.03 0.03 0.02 0.03 0.03 0.03 0.04 0.04 0.04 0.03
0.06 0.05 0.04 0.04 0.04 0.06 0.07 0.06 0.04 0.04 0.04 0.04 0.04 0.04 0.04 0.04 0.04 0.04 0.04 0.04 0.04 0.04 0.04 0.04 0.03 0.03 0.03 0.04 0.05 0.05 0.04 0.03 0.03 0.04 0.04 0.04 0.03 0.03 0.04 0.04 0.04 0.05 0.05
0.07 0.09 0.08 0.07 0.07 0.07 0.07 0.07 0.06 0.04 0.03 0.03 0.03 0.04 0.05 0.05 0.05 0.05 0.05 0.04 0.04 0.04 0.04 0.04 0.03 0.03 0.03 0.03 0.04 0.04 0.04 0.04 0.03 0.04 0.04 0.04 0.04 0.04 0.05 0.05 0.05 0.05 0.05
0.07 0.10 0.11 0.10 0.10 0.09 0.07 0.06 0.06 0.06 0.04 0.03 0.03 0.04 0.05 0.05 0.07 0.07 0.06 0.05 0.05 0.05 0.05 0.05 0.04 0.03 0.03 0.03 0.02 0.02 0.03 0.03 0.03 0.04 0.04 0.04 0.04 0.04 0.04 0.04 0.04 0.04 0.04
0.06 0.08 0.10 0.11 0.12 0.10 0.07 0.06 0.06 0.05 0.04 0.04 0.03 0.04 0.04 0.05 0.07 0.07 0.07 0.05 0.05 0.05 0.05 0.05 0.04 0.04 0.03 0.02 0.02 0.03 0.04 0.04 0.03 0.04 0.04 0.04 0.04 0.03 0.03 0.03 0.03 0.03 0.03
0.04 0.06 0.08 0.10 0.11 0.10 0.08 0.06 0.07 0.07 0.06 0.05 0.04 0.04 0.04 0.04 0.05 0.06 0.06 0.06 0.05 0.05 0.05 0.04 0.04 0.04 0.03 0.03 0.02 0.03 0.03 0.03 0.03 0.02 0.02 0.03 0.03 0.03 0.03 0.03 0.03 0.02 0.02
0.04 0.05 0.06 0.08 0.09 0.09 0.08 0.07 0.07 0.07 0.08 0.07 0.05 0.04 0.04 0.05 0.05 0.06 0.06 0.06 0.06 0.06 0.05 0.04 0.03 0.03 0.04 0.04 0.03 0.03 0.03 0.03 0.03 0.03 0.02 0.02 0.02 0.02 0.03 0.03 0.03 0.02 0.02
0.05 0.05 0.05 0.04 0.05 0.06 0.06 0.06 0.07 0.07 0.07 0.06 0.05 0.05 0.05 0.05 0.06 0.05 0.05 0.05 0.06 0.06 0.06 0.05 0.05 0.04 0.04 0.04 0.03 0.03 0.03 0.03 0.03 0.03 0.02 0.01 0.01 0.01 0.01 0.02 0.03 0.02 0.02
0.05 0.05 0.04 0.04 0.04 0.04 0.04 0.06 0.07 0.06 0.05 0.05 0.04 0.04 0.04 0.05 0.06 0.06 0.05 0.05 0.06 0.06 0.06 0.05 0.05 0.05 0.05 0.04 0.04 0.04 0.05 0.04 0.03 0.03 0.02 0.02 0.01 0.01 0.01 0.01 0.02 0.03 0.03
0.06 0.05 0.05 0.04 0.04 0.04 0.05 0.06 0.07 0.06 0.05 0.05 0.04 0.05 0.05 0.06 0.06 0.07 0.06 0.06 0.06 0.06 0.06 0.05 0.05 0.06 0.05 0.05 0.06 0.06 0.05 0.04 0.03 0.03 0.03 0.02 0.02 0.01 0.01 0.01 0.02 0.03 0.03
0.06 0.06 0.05 0.04 0.05 0.06 0.06 0.06 0.06 0.06 0.06 0.06 0.05 0.05 0.05 0.06 0.07 0.08 0.07 0.06 0.07 0.06 0.06 0.06 0.06 0.06 0.06 0.05 0.06 0.05 0.05 0.03 0.03 0.02 0.02 0.02 0.02 0.02 0.01 0.01 0.01 0.02 0.02
0.06 0.05 0.05 0.04 0.05 0.06 0.06 0.06 0.06 0.07 0.07 0.06 0.06 0.05 0.06 0.06 0.06 0.07 0.06 0.05 0.06 0.06 0.06 0.05 0.05 0.05 0.04 0.04 0.04 0.04 0.03 0.03 0.02 0.02 0.02 0.02 0.02 0.01 0.01 0.01 0.01 0.01 0.02
0.06 0.05 0.05 0.04 0.05 0.05 0.05 0.06 0.06 0.06 0.07 0.06 0.06 0.05 0.05 0.05 0.06 0.05 0.04 0.04 0.04 0.04 0.04 0.03 0.04 0.03 0.03 0.02 0.02 0.02 0.02 0.02 0.02 0.02 0.02 0.01 0.01 0.01 0.01 0.01 0.01 0.01 0.02
0.06 0.05 0.05 0.04 0.04 0.04 0.04 0.05 0.06 0.06 0.06 0.06 0.06 0.06 0.05 0.05 0.05 0.05 0.05 0.04 0.04 0.04 0.03 0.03 0.03 0.02 0.02 0.02 0.02 0.02 0.01 0.01 0.01 0.01 0.01 0.01 0.01 0.01 0.01 0.01 0.01 0.01 0.01
0.05 0.05 0.04 0.04 0.04 0.04 0.04 0.04 0.05 0.05 0.06 0.06 0.06 0.06 0.05 0.04 0.04 0.04 0.04 0.04 0.03 0.03 0.03 0.02 0.02 0.02 0.01 0.01 0.01 0.01 0.01 0.01 0.01 0.01 0.01 0.01 0.01 0.01 0.01 0.01 0.01 0.01 0.01
0.04 0.04 0.04 0.04 0.04 0.04 0.05 0.04 0.04 0.04 0.05 0.05 0.05 0.05 0.04 0.03 0.03 0.03 0.03 0.02 0.02 0.02 0.02 0.02 0.02 0.02 0.01 0.01 0.01 0.01 0.01 0.01 0.00 0.01 0.01 0.01 0.01 0.01 0.01 0.02 0.02 0.02 0.02
0.04 0.04 0.04 0.04 0.04 0.04 0.04 0.04 0.04 0.04 0.04 0.04 0.04 0.05 0.04 0.03 0.02 0.02 0.02 0.02 0.02 0.01 0.01 0.02 0.02 0.02 0.01 0.01 0.01 0.01 0.01 0.01 0.01 0.01 0.01 0.01 0.01 0.01 0.02 0.02 0.02 0.02 0.02
0.04 0.04 0.04 0.04 0.04 0.04 0.04 0.04 0.04 0.05 0.04 0.04 0.04 0.04 0.04 0.03 0.02 0.02 0.02 0.02 0.02 0.01 0.01 0.01 0.01 0.01 0.01 0.01 0.01 0.01 0.01 0.01 0.01 0.01 0.01 0.01 0.01 0.01 0.02 0.02 0.02 0.02 0.02
0.03 0.03 0.04 0.04 0.04 0.04 0.04 0.04 0.05 0.05 0.05 0.04 0.04 0.05 0.04 0.02 0.02 0.02 0.02 0.01 0.01 0.01 0.01 0.01 0.01 0.01 0.01 0.01 0.01 0.01 0.01 0.01 0.01 0.01 0.01 0.01 0.01 0.01 0.02 0.02 0.02 0.02 0.02
0.03 0.03 0.03 0.03 0.03 0.03 0.04 0.04 0.05 0.05 0.04 0.04 0.04 0.04 0.04 0.02 0.02 0.02 0.02 0.01 0.01 0.01 0.01 0.01 0.01 0.01 0.01 0.01 0.01 0.01 0.01 0.01 0.01 0.01 0.01 0.01 0.01 0.01 0.01 0.02 0.02 0.02 0.02
0.03 0.03 0.03 0.03 0.03 0.03 0.03 0.04 0.04 0.04 0.04 0.04 0.04 0.04 0.03 0.03 0.02 0.02 0.02 0.01 0.01 0.01 0.01 0.01 0.01 0.01 0.01 0.01 0.01 0.01 0.01 0.01 0.01 0.01 0.01 0.01 0.01 0.01 0.02 0.02 0.02 0.02 0.02
0.03 0.03 0.03 0.03 0.03 0.03 0.03 0.03 0.04 0.04 0.04 0.04 0.04 0.04 0.04 0.04 0.03 0.02 0.01 0.01 0.01 0.01 0.01 0.01 0.01 0.01 0.01 0.01 0.00 0.00 0.01 0.01 0.01 0.01 0.01 0.01 0.01 0.01 0.01 0.02 0.02 0.02 0.02
0.02 0.02 0.03 0.03 0.03 0.03 0.03 0.03 0.03 0.03 0.03 0.04 0.04 0.04 0.04 0.03 0.03 0.01 0.01 0.01 0.01 0.01 0.01 0.01 0.01 0.01 0.01 0.00 0.00 0.00 0.01 0.01 0.01 0.01 0.01 0.01 0.01 0.01 0.01 0.01 0.01 0.02 0.02
0.02 0.02 0.02 0.02 0.03 0.02 0.02 0.02 0.02 0.02 0.03 0.03 0.04 0.04 0.03 0.03 0.03 0.02 0.01 0.01 0.01 0.01 0.01 0.01 0.01 0.01 0.00 0.00 0.00 0.01 0.01 0.01 0.01 0.01 0.01 0.01 0.01 0.01 0.01 0.01 0.01 0.01 0.01
MSLP
1005.38 1005.03 1004.69 1004.33 1003.94 1003.56 1003.21 1002.95 1002.83 1002.91 1003.20 1003.73 1004.50 1005.46 1006.57 1007.77 1008.99 1010.17 1011.26 1012.24 1013.09 1013.81 1014.42 1014.95 1015.42 1015.87 1016.32 1016.80 1017.32 1017.90 1018.52 1019.18 1019.86 1020.54 1021.19 1021.79 1022.29 1022.68 1022.94 1023.06 1023.04 1022.91 1022.67
1004.79 1004.42 1004.07 1003.73 1003.38 1003.06 1002.79 1002.62 1002.59 1002.75 1003.11 1003.70 1004.50 1005.47 1006.57 1007.74 1008.93 1010.09 1011.17 1012.15 1013.02 1013.78 1014.45 1015.05 1015.59 1016.11 1016.63 1017.16 1017.71 1018.30 1018.92 1019.58 1020.24 1020.90 1021.53 1022.11 1022.59 1022.97 1023.22 1023.33 1023.30 1023.15 1022.89
1004.11 1003.73 1003.39 1003.08 1002.79 1002.55 1002.37 1002.31 1002.39 1002.66 1003.12 1003.78 1004.62 1005.62 1006.72 1007.87 1009.04 1010.16 1011.22 1012.20 1013.08 1013.87 1014.59 1015.25 1015.87 1016.47 1017.05 1017.64 1018.24 1018.86 1019.49 1020.14 1020.79 1021.43 1022.03 1022.57 1023.03 1023.38 1023.60 1023.68 1023.63 1023.46 1023.19
1003.30 1002.94 1002.64 1002.38 1002.17 1002.03 1001.98 1002.05 1002.28 1002.67 1003.25 1004.00 1004.92 1005.95 1007.07 1008.21 1009.35 1010.44 1011.47 1012.43 1013.31 1014.12 1014.87 1015.58 1016.26 1016.92 1017.57 1018.22 1018.87 1019.52 1020.17 1020.82 1021.46 1022.07 1022.64 1023.15 1023.57 1023.88 1024.07 1024.13 1024.05 1023.86 1023.57
1002.33 1002.02 1001.79 1001.63 1001.54 1001.54 1001.64 1001.88 1002.27 1002.82 1003.53 1004.40 1005.40 1006.49 1007.62 1008.76 1009.88 1010.94 1011.94 1012.87 1013.73 1014.53 1015.29 1016.03 1016.75 1017.46 1018.16 1018.85 1019.54 1020.22 1020.89 1021.55 1022.18 1022.77 1023.31 1023.78 1024.16 1024.44 1024.60 1024.63 1024.54 1024.33 1024.03
1001.21 1000.99 1000.87 1000.85 1000.92 1001.10 1001.39 1001.82 1002.39 1003.11 1003.97 1004.96 1006.05 1007.19 1008.36 1009.50 1010.60 1011.63 1012.59 1013.48 1014.31 1015.10 1015.85 1016.59 1017.32 1018.05 1018.78 1019.50 1020.22 1020.92 1021.60 1022.26 1022.88 1023.45 1023.97 1024.41 1024.76 1025.01 1025.15 1025.16 1025.05 1024.84 1024.53
999.98 999.89 999.93 1000.09 1000.36 1000.75 1001.26 1001.89 1002.66 1003.55 1004.56 1005.66 1006.83 1008.02 1009.21 1010.36 1011.44 1012.45 1013.37 1014.23 1015.03 1015.78 1016.52 1017.24 1017.96 1018.69 1019.42 1020.15 1020.87 1021.58 1022.26 1022.91 1023.52 1024.07 1024.57 1024.99 1025.31 1025.54 1025.66 1025.66 1025.55 1025.34 1025.04
998.76 998.83 999.06 999.43 999.93 1000.54 1001.27 1002.12 1003.07 1004.12 1005.26 1006.46 1007.69 1008.92 1010.11 1011.26 1012.32 1013.30 1014.20 1015.03 1015.80 1016.53 1017.24 1017.94 1018.64 1019.36 1020.07 1020.78 1021.49 1022.18 1022.85 1023.48 1024.07 1024.60 1025.07 1025.47 1025.77 1025.98 1026.08 1026.08 1025.98 1025.78 1025.50
997.71 997.95 998.38 998.96 999.69 1000.53 1001.48 1002.51 1003.63 1004.81 1006.04 1007.30 1008.56 1009.80 1010.99 1012.12 1013.16 1014.12 1015.00 1015.81 1016.56 1017.28 1017.97 1018.66 1019.35 1020.03 1020.72 1021.41 1022.09 1022.75 1023.38 1023.98 1024.54 1025.04 1025.48 1025.84 1026.12 1026.31 1026.40 1026.40 1026.31 1026.13 1025.88
997.00 997.39 998.00 998.79 999.72 1000.76 1001.89 1003.08 1004.32 1005.59 1006.88 1008.16 1009.43 1010.64 1011.80 1012.90 1013.91 1014.85 1015.72 1016.52 1017.28 1018.00 1018.70 1019.38 1020.06 1020.73 1021.39 1022.04 1022.68 1023.30 1023.89 1024.44 1024.95 1025.41 1025.80 1026.13 1026.38 1026.54 1026.62 1026.62 1026.53 1026.37 1026.15
996.76 997.28 998.03 998.98 1000.07 1001.26 1002.53 1003.83 1005.15 1006.47 1007.77 1009.04 1010.26 1011.43 1012.54 1013.59 1014.57 1015.49 1016.35 1017.17 1017.94 1018.68 1019.40 1020.09 1020.77 1021.43 1022.07 1022.69 1023.28 1023.85 1024.38 1024.88 1025.33 1025.73 1026.08 1026.36 1026.56 1026.70 1026.76 1026.74 1026.66 1026.52 1026.33
997.11 997.70 998.54 999.58 1000.77 1002.06 1003.40 1004.76 1006.11 1007.43 1008.70 1009.92 1011.08 1012.19 1013.23 1014.22 1015.16 1016.06 1016.93 1017.76 1018.56 1019.33 1020.08 1020.80 1021.49 1022.15 1022.77 1023.36 1023.91 1024.42 1024.90 1025.33 1025.71 1026.05 1026.34 1026.56 1026.72 1026.82 1026.85 1026.82 1026.74 1026.61 1026.44
998.07 998.67 999.53 1000.60 1001.82 1003.14 1004.50 1005.86 1007.19 1008.48 1009.70 1010.85 1011.93 1012.95 1013.93 1014.86 1015.76 1016.64 1017.50 1018.35 1019.18 1019.99 1020.77 1021.52 1022.22 1022.88 1023.50 1024.05 1024.56 1025.02 1025.43 1025.80 1026.12 1026.39 1026.61 1026.78 1026.89 1026.95 1026.95 1026.90 1026.81 1026.68 1026.53
999.58 1000.14 1000.96 1001.99 1003.18 1004.46 1005.78 1007.10 1008.39 1009.61 1010.76 1011.84 1012.84 1013.79 1014.69 1015.56 1016.42 1017.28 1018.14 1018.99 1019.84 1020.68 1021.49 1022.26 1022.97 1023.63 1024.23 1024.76 1025.22 1025.63 1025.98 1026.28 1026.54 1026.75 1026.91 1027.03 1027.09 1027.11 1027.09 1027.02 1026.92 1026.79 1026.64
1001.51 1001.99 1002.73 1003.67 1004.77 1005.97 1007.21 1008.46 1009.68 1010.83 1011.91 1012.92 1013.85 1014.73 1015.57 1016.39 1017.21 1018.04 1018.89 1019.74 1020.59 1021.44 1022.25 1023.02 1023.74 1024.38 1024.96 1025.45 1025.87 1026.23 1026.53 1026.77 1026.97 1027.13 1027.24 1027.32 1027.35 1027.34 1027.30 1027.22 1027.11 1026.98 1026.83
1003.70 1004.08 1004.70 1005.52 1006.50 1007.59 1008.74 1009.90 1011.04 1012.13 1013.15 1014.10 1014.98 1015.81 1016.60 1017.38 1018.17 1018.96 1019.78 1020.61 1021.45 1022.27 1023.07 1023.82 1024.51 1025.13 1025.66 1026.11 1026.49 1026.80 1027.04 1027.24 1027.39 1027.51 1027.59 1027.63 1027.65 1027.63 1027.58 1027.50 1027.40 1027.27 1027.13
1005.96 1006.23 1006.73 1007.42 1008.28 1009.26 1010.31 1011.39 1012.46 1013.49 1014.46 1015.37 1016.22 1017.02 1017.78 1018.53 1019.27 1020.03 1020.81 1021.60 1022.39 1023.17 1023.93 1024.63 1025.27 1025.84 1026.32 1026.73 1027.05 1027.31 1027.51 1027.66 1027.78 1027.87 1027.93 1027.97 1027.98 1027.97 1027.93 1027.86 1027.77 1027.66 1027.53
1008.14 1008.33 1008.72 1009.30 1010.05 1010.93 1011.88 1012.89 1013.90 1014.89 1015.84 1016.73 1017.56 1018.34 1019.08 1019.80 1020.51 1021.22 1021.94 1022.67 1023.40 1024.11 1024.80 1025.43 1026.01 1026.51 1026.93 1027.27 1027.54 1027.75 1027.91 1028.03 1028.12 1028.19 1028.25 1028.29 1028.31 1028.32 1028.31 1028.28 1028.22 1028.14 1028.03
1010.15 1010.28 1010.60 1011.10 1011.77 1012.56 1013.45 1014.39 1015.36 1016.32 1017.25 1018.13 1018.95 1019.72 1020.44 1021.14 1021.81 1022.47 1023.13 1023.79 1024.43 1025.06 1025.65 1026.20 1026.69 1027.11 1027.47 1027.75 1027.97 1028.13 1028.25 1028.34 1028.42 1028.48 1028.53 1028.59 1028.63 1028.67 1028.70 1028.71 1028.70 1028.67 1028.60
1011.95 1012.07 1012.36 1012.81 1013.42 1014.16 1014.99 1015.90 1016.83 1017.77 1018.68 1019.55 1020.36 1021.12 1021.83 1022.49 1023.12 1023.72 1024.31 1024.88 1025.44 1025.96 1026.46 1026.91 1027.31 1027.65 1027.93 1028.15 1028.32 1028.44 1028.53 1028.60 1028.66 1028.72 1028.79 1028.86 1028.93 1029.01 1029.08 1029.15 1029.19 1029.21 1029.20
1013.57 1013.71 1014.00 1014.44 1015.02 1015.72 1016.52 1017.39 1018.30 1019.21 1020.11 1020.96 1021.76 1022.49 1023.17 1023.79 1024.37 1024.91 1025.42 1025.91 1026.36 1026.79 1027.19 1027.54 1027.85 1028.12 1028.33 1028.49 1028.61 1028.70 1028.77 1028.82 1028.87 1028.94 1029.01 1029.10 1029.21 1029.32 1029.45 1029.56 1029.67 1029.75 1029.80
1015.06 1015.25 1015.56 1016.01 1016.58 1017.26 1018.03 1018.87 1019.74 1020.62 1021.49 1022.31 1023.08 1023.78 1024.42 1025.00 1025.52 1025.99 1026.43 1026.82 1027.18 1027.52 1027.82 1028.08 1028.31 1028.50 1028.65 1028.76 1028.85 1028.91 1028.97 1029.01 1029.07 1029.14 1029.23 1029.34 1029.47 1029.63 1029.79 1029.96 1030.13 1030.28 1030.40
1016.48 1016.72 1017.07 1017.53 1018.11 1018.77 1019.52 1020.31 1021.14 1021.98 1022.79 1023.57 1024.29 1024.95 1025.54 1026.07 1026.53 1026.93 1027.29 1027.60 1027.88 1028.12 1028.33 1028.52 1028.67 1028.80 1028.90 1028.98 1029.05 1029.10 1029.15 1029.20 1029.26 1029.35 1029.46 1029.59 1029.75 1029.94 1030.15 1030.36 1030.58 1030.79 1030.98
1017.87 1018.17 1018.55 1019.03 1019.60 1020.24 1020.94 1021.69 1022.46 1023.23 1023.99 1024.71 1025.37 1025.97 1026.51 1026.97 1027.37 1027.71 1028.00 1028.24 1028.43 1028.60 1028.74 1028.85 1028.95 1029.03 1029.10 1029.16 1029.21 1029.26 1029.32 1029.38 1029.47 1029.58 1029.71 1029.87 1030.06 1030.28 1030.52 1030.78 1031.05 1031.31 1031.56
1019.27 1019.60 1020.01 1020.49 1021.03 1021.64 1022.29 1022.97 1023.67 1024.37 1025.05 1025.69 1026.29 1026.83 1027.31 1027.72 1028.06 1028.34 1028.57 1028.74 1028.87 1028.98 1029.05 1029.11 1029.16 1029.21 1029.25 1029.29 1029.35 1029.41 1029.49 1029.58 1029.70 1029.84 1030.00 1030.20 1030.42 1030.67 1030.94 1031.24 1031.54 1031.84 1032.14
1020.64 1021.00 1021.41 1021.87 1022.39 1022.94 1023.52 1024.12 1024.74 1025.35 1025.95 1026.52 1027.05 1027.53 1027.95 1028.31 1028.61 1028.84 1029.02 1029.14 1029.22 1029.27 1029.30 1029.32 1029.33 1029.34 1029.37 1029.42 1029.48 1029.56 1029.66 1029.79 1029.95 1030.13 1030.33 1030.56 1030.82 1031.10 1031.40 1031.72 1032.05 1032.39 1032.71
Thickness
5489 5490 5490 5491 5492 5493 5494 5496 5498 5499 5500 5501 5501 5501 5501 5501 5501 5501 5501 5503 5504 5506 5507 5509 5510 5511 5511 5511 5510 5510 5510 5510 5509 5511 5511 5512 5513 5513 5514 5514 5515 5516 5516
5482 5483 5483 5485 5485 5486 5488 5490 5491 5491 5492 5493 5493 5494 5493 5494 5493 5493 5494 5495 5497 5498 5499 5501 5501 5502 5502 5502 5501 5501 5501 5502 5502 5502 5503 5503 5503 5505 5505 5505 5505 5506 5507
5476 5476 5477 5478 5478 5479 5481 5483 5483 5484 5485 5485 5485 5485 5486 5485 5485 5486 5487 5488 5490 5490 5491 5492 5494 5494 5493 5493 5493 5493 5493 5494 5494 5493 5493 5493 5494 5495 5495 5495 5496 5496 5497
5471 5470 5471 5472 5473 5474 5475 5476 5476 5477 5477 5477 5477 5477 5477 5477 5477 5478 5479 5480 5481 5482 5484 5485 5485 5486 5486 5485 5485 5485 5485 5485 5485 5485 5484 5484 5484 5484 5484 5485 5486 5487 5488
5466 5466 5466 5466 5467 5468 5469 5469 5469 5470 5470 5469 5469 5469 5468 5468 5469 5470 5471 5473 5473 5474 5475 5476 5477 5477 5478 5478 5478 5477 5477 5476 5476 5475 5475 5474 5474 5474 5473 5473 5475 5477 5479
5460 5460 5461 5461 5461 5462 5463 5463 5463 5463 5462 5461 5461 5460 5460 5461 5462 5463 5464 5465 5466 5467 5467 5467 5468 5469 5469 5469 5469 5469 5469 5468 5467 5466 5465 5465 5464 5464 5464 5464 5465 5467 5469
5455 5455 5455 5454 5454 5454 5456 5456 5455 5454 5454 5453 5453 5452 5452 5452 5454 5456 5456 5456 5457 5458 5459 5459 5460 5460 5460 5459 5459 5459 5459 5459 5459 5458 5456 5456 5456 5456 5455 5456 5456 5457 5457
5449 5448 5448 5447 5447 5447 5447 5447 5447 5446 5445 5445 5444 5444 5443 5444 5446 5447 5447 5447 5448 5449 5450 5451 5451 5450 5450 5450 5450 5449 5448 5448 5449 5449 5448 5448 5447 5447 5447 5447 5447 5448 5449
5442 5441 5441 5440 5440 5440 5440 5440 5439 5438 5437 5436 5436 5435 5435 5435 5437 5438 5438 5438 5439 5440 5441 5441 5442 5441 5442 5442 5441 5440 5439 5439 5439 5439 5439 5439 5439 5439 5439 5439 5438 5439 5439
5436 5434 5434 5434 5433 5433 5433 5433 5432 5430 5429 5428 5427 5426 5426 5426 5427 5428 5429 5430 5430 5431 5432 5432 5433 5433 5433 5433 5432 5431 5431 5431 5431 5431 5430 5430 5430 5430 5431 5430 5429 5429 5429
5429 5429 5428 5427 5426 5426 5426 5425 5424 5423 5421 5419 5419 5419 5418 5418 5419 5420 5421 5421 5422 5423 5423 5423 5423 5424 5424 5423 5423 5423 5423 5423 5422 5421 5420 5420 5420 5421 5421 5420 5420 5420 5420
5423 5422 5421 5420 5420 5419 5418 5417 5416 5414 5412 5411 5410 5409 5409 5410 5410 5411 5412 5413 5415 5415 5415 5415 5414 5415 5415 5414 5414 5414 5414 5414 5412 5411 5411 5410 5411 5411 5411 5412 5412 5412 5412
5418 5416 5415 5414 5413 5412 5410 5409 5408 5406 5405 5403 5402 5402 5402 5402 5402 5403 5405 5405 5406 5406 5406 5406 5406 5405 5405 5404 5404 5404 5404 5403 5402 5401 5401 5401 5400 5401 5402 5403 5404 5405 5406
5411 5410 5409 5407 5406 5404 5403 5401 5400 5398 5397 5397 5396 5395 5395 5395 5395 5395 5395 5395 5397 5397 5396 5396 5396 5395 5395 5394 5394 5394 5393 5393 5392 5391 5391 5391 5392 5393 5394 5395 5395 5397 5398
5404 5404 5402 5400 5398 5397 5395 5393 5393 5392 5391 5391 5390 5389 5388 5388 5388 5389 5388 5388 5388 5388 5388 5387 5386 5385 5384 5384 5384 5383 5383 5383 5382 5382 5382 5382 5383 5384 5385 5386 5387 5388 5389
5398 5396 5395 5393 5391 5390 5388 5387 5386 5385 5385 5384 5384 5383 5382 5382 5381 5381 5381 5380 5381 5381 5380 5378 5377 5376 5375 5375 5374 5374 5374 5373 5373 5373 5373 5374 5374 5375 5376 5378 5379 5380 5381
5390 5389 5388 5386 5385 5384 5383 5381 5379 5377 5376 5376 5376 5375 5375 5374 5373 5373 5373 5373 5373 5372 5371 5369 5368 5367 5366 5366 5365 5365 5364 5364 5364 5365 5365 5366 5367 5368 5369 5370 5371 5372 5373
5382 5381 5380 5379 5378 5377 5376 5374 5373 5371 5369 5367 5367 5367 5366 5365 5365 5365 5366 5365 5363 5362 5362 5361 5359 5358 5358 5357 5356 5356 5356 5356 5357 5357 5357 5358 5359 5360 5361 5362 5363 5364 5365
5373 5372 5371 5370 5369 5369 5368 5367 5365 5363 5362 5360 5359 5358 5357 5357 5357 5357 5357 5356 5354 5353 5352 5352 5351 5350 5349 5349 5348 5348 5348 5349 5349 5350 5350 5351 5351 5352 5354 5355 5355 5357 5357
5365 5364 5364 5362 5361 5361 5360 5358 5357 5355 5354 5352 5351 5349 5348 5348 5348 5347 5347 5346 5345 5344 5343 5343 5342 5342 5341 5341 5340 5340 5340 5341 5341 5342 5342 5342 5343 5344 5346 5346 5348 5349 5349
5357 5356 5356 5355 5353 5353 5352 5350 5349 5347 5346 5344 5343 5342 5342 5340 5339 5338 5337 5336 5336 5335 5335 5334 5334 5334 5333 5333 5333 5333 5333 5333 5333 5333 5333 5334 5335 5336 5338 5339 5340 5341 5342
5350 5349 5348 5347 5346 5345 5344 5342 5341 5339 5338 5336 5335 5334 5334 5332 5330 5329 5328 5328 5327 5326 5326 5326 5325 5325 5325 5325 5325 5325 5325 5326 5326 5326 5326 5327 5328 5329 5331 5332 5333 5334 5336
5342 5341 5341 5340 5339 5338 5336 5335 5333 5332 5330 5329 5328 5327 5325 5324 5322 5321 5320 5320 5319 5318 5318 5317 5317 5317 5317 5318 5318 5318 5318 5318 5319 5319 5319 5320 5321 5322 5324 5325 5326 5328 5329
5335 5334 5333 5332 5331 5330 5329 5327 5326 5325 5323 5322 5320 5318 5317 5316 5314 5313 5313 5312 5311 5311 5310 5310 5310 5310 5311 5311 5311 5311 5311 5312 5312 5312 5313 5314 5314 5316 5317 5319 5320 5321 5322
5327 5327 5325 5324 5323 5322 5320 5320 5319 5317 5316 5315 5313 5311 5309 5308 5307 5306 5305 5305 5304 5304 5303 5303 5303 5303 5304 5304 5304 5305 5305 5305 5306 5307 5308 5308 5308 5309 5311 5312 5313 5315 5316
5320 5319 5318 5316 5315 5314 5313 5311 5310 5309 5308 5307 5305 5303 5302 5300 5300 5299 5299 5298 5297 5297 5297 5296 5296 5297 5297 5298 5298 5298 5299 5300 5301 5301 5301 5302 5302 5303 5304 5305 5307 5308 5310